Location: Greenhawk Observatory
(37.3417°N, 122.0298°W)
Time: 13:02:27
(UTC-07:00)

Daily predictions for brighter satellites

Satellite Brightness Start Highest point End
(mag) Time Altitude Azimuth Time Altitude Azimuth Time Altitude Azimuth
USA 229 DEB 4.4 19:18:51 10° NNW 19:25:33 40° NE 19:32:21 10° ESE
USA 229 4.4 19:18:58 10° NNW 19:25:39 40° NE 19:32:25 10° ESE
Thor Agena Rocket 3.7 19:27:29 10° NNE 19:32:40 57° ESE 19:37:45 10° S
Cosmos 1570 Rocket 4.4 19:27:52 10° SSW 19:33:03 70° WNW 19:38:17 10° NNE
Cosmos 1763 Rocket 4.2 19:30:29 10° SSE 19:34:52 30° E 19:39:18 10° NE
Cosmos 2208 Rocket 4.4 19:30:26 10° SSW 19:35:52 75° WNW 19:41:20 10° NNE
Cosmos 1842 4.1 19:35:10 10° NNW 19:39:03 55° W 19:42:53 10° S
SPOT 3 Rocket 4.1 19:36:33 10° S 19:41:38 65° WSW 19:46:46 10° NNW
Cosmos 1184 Rocket 2.9 19:42:37 10° N 19:46:00 82° W 19:49:23 10° S
Meteor 2-5 Rocket 4.4 19:41:29 10° N 19:46:53 36° ENE 19:52:09 10° SE
H-2A R/B 3.2 19:44:08 10° SE 19:47:34 37° ENE 19:51:02 10° N
Cosmos 1825 Rocket 3.5 19:45:03 10° N 19:49:27 65° E 19:53:51 10° SSE
Cosmos 1943 Rocket 2.3 19:46:23 10° NNW 19:51:52 57° ENE 19:57:23 10° SE
GPS 2-04 Rocket1 3.9 19:49:19 10° W 19:53:19 39° SSW 19:57:12 11° SE
Meteor 2-13 Rocket 4.5 19:53:55 10° S 19:59:52 58° E 20:05:49 10° NNE
Tiangong 2 2.5 19:57:14 10° W 20:00:11 33° SSW 20:02:58 11° SSE
Cosmos 2181 Rocket 3.9 19:55:02 10° N 20:01:13 68° E 20:07:18 10° SSE
Cosmos 1898 Rocket 3.4 20:02:42 10° NNW 20:07:56 83° ENE 20:13:05 10° SSE
Cosmos 1707 2.7 20:04:27 10° N 20:08:21 61° E 20:12:13 10° SSE
Cosmos 304 Rocket 4.1 20:04:29 10° S 20:08:57 41° ESE 20:13:27 10° NNE
FengYun 1-2 T 4.2 20:03:26 10° SSE 20:09:02 78° ENE 20:14:38 10° N
COSMOS 2406 3.9 20:05:31 10° SSE 20:10:22 30° ESE 20:15:15 10° NE
Cosmos 1814 Rocket 3.9 20:05:12 10° SSW 20:10:23 82° ESE 20:15:33 10° NNE
USA 81 4.0 20:06:37 10° N 20:11:53 67° E 20:17:07 10° SSE
Cosmos 1340 Rocket 2.9 20:12:26 10° NNW 20:16:31 79° W 20:20:34 10° S
Cosmos 389 Rocket 3.7 20:13:14 10° SSW 20:16:39 45° WNW 20:20:01 10° N
Cosmos 2074 Rocket 4.0 20:13:52 10° S 20:19:55 58° E 20:25:59 10° NNE
Resurs 1-3 4.2 20:17:59 22° ESE 20:20:08 37° ENE 20:24:11 10° N
Cosmos 1758 Rocket 3.8 20:16:04 10° N 20:20:34 74° W 20:25:02 10° S
FREGAT/IRIS 3.9 20:18:48 10° S 20:21:43 42° W 20:24:38 10° NNW
Cosmos 1356 Rocket 3.8 20:19:19 10° N 20:23:27 44° ENE 20:25:32 25° SE
Cosmos 990 Rocket 3.9 20:18:26 10° NNW 20:23:37 73° ENE 20:28:14 13° SSE
Cosmos 2150 Rocket 4.0 20:18:17 10° NNW 20:23:38 74° ENE 20:28:49 11° SSE
ALOS 3.8 20:20:50 10° SSW 20:25:07 37° W 20:29:27 10° NNW
Cosmos 1726 Rocket 4.3 20:21:59 10° SSW 20:26:16 54° W 20:30:32 10° N
USA 186 3.8 20:28:42 12° NNE 20:28:42 12° NNE 20:29:01 10° NNE
Cosmos 2369 Rocket 3.5 20:21:51 10° NW 20:27:06 40° WSW 20:32:17 10° S
Envisat 3.4 20:25:55 25° ESE 20:28:19 40° ENE 20:33:03 10° N
SL-08 ROCKET BODY 4.4 20:23:15 10° S 20:29:05 82° W 20:35:02 10° N
Lacrosse 5 3.2 20:26:07 10° WNW 20:30:44 36° WSW 20:35:20 10° S
Resurs 01 Rocket 1.6 20:31:52 26° SE 20:34:13 58° ENE 20:38:34 10° N
Cosmos 1656 Rocket 3.8 20:28:49 10° NNW 20:34:22 55° ENE 20:37:00 29° SE
CZ-2D R/B 3.1 20:37:14 25° SSE 20:39:20 86° E 20:43:10 10° N
OE (NEXTSAT) 4.3 20:38:21 10° WNW 20:41:52 76° SW 20:42:18 64° SSE
SJ-6B 4.0 20:39:28 10° S 20:43:20 43° W 20:47:10 10° NNW
Cosmos 482 Debris 3.7 20:40:06 10° NW 20:43:11 64° WNW 20:43:11 64° WNW
Cosmos 1378 4.3 20:42:10 10° NNW 20:45:48 44° W 20:49:23 10° SSW
GP-B 3.2 20:42:16 10° NNE 20:46:36 50° E 20:46:46 50° E
Nadezhda 3 Rocket 4.3 20:42:59 10° N 20:48:56 42° ENE 20:50:11 38° ESE
In-Cosmos 22 4.1 20:46:00 10° N 20:51:40 67° E 20:54:17 33° SSE
Cosmos 2184 Rocket 4.1 20:46:53 10° S 20:53:09 79° W 20:59:32 10° N
Cosmos 841 Rocket 3.9 20:48:27 10° SSW 20:53:32 61° WNW 20:58:37 10° N
ATLAS CENTAUR R/B 2.9 20:41:12 10° NW 20:53:36 83° NE 20:55:19 45° SE
Cosmos 1937 Rocket 4.4 20:50:12 10° NNW 20:55:18 49° WSW 21:00:21 10° S
Cosmos 1544 3.5 20:58:09 54° N 20:58:09 54° N 21:01:02 10° N
FALCON 9 R/B 2.1 20:56:53 10° W 21:00:20 67° S 21:01:58 47° ESE
Cosmos 1610 Rocket 4.4 20:56:09 10° S 21:02:29 86° E 21:08:54 10° N
Cosmos 1812 Rocket 3.6 21:03:03 65° NE 21:03:03 65° NE 21:07:00 10° N
Meteor 1-24 Rocket 3.9 20:58:26 10° NNW 21:04:26 77° W 21:08:29 21° S
ATLAS 2AS CENTAUR R/B 4.4 21:05:42 10° NNW 21:11:26 21° NE 21:13:10 19° NE
NOSS 3-1 (A) 4.0 21:13:40 10° NNW 21:21:28 80° ENE 21:23:50 52° SE
Cosmos 540 Rocket 3.8 21:20:12 10° SSW 21:25:15 64° WNW 21:30:20 10° NNE
GEOS 3 Rocket 4.3 21:23:17 10° NNE 21:28:33 56° NW 21:33:47 10° SW
Cosmos 1939 Rocket 4.5 21:31:19 30° NNW 21:31:19 30° NNW 21:33:26 10° NNW
BREEZE M DEB (TANK) 4.4 21:26:55 10° NW 21:29:54 32° WNW 21:29:54 32° WNW
NOSS 3-1 (C) 4.2 21:24:29 10° NW 21:32:15 70° WSW 21:35:16 43° S
Cosmos 962 Rocket 4.4 21:40:32 77° SSW 21:41:01 84° W 21:47:26 10° N
Milstar 3 Cent rocket 4.5 21:54:36 10° SW 21:54:43 11° SW 21:54:43 11° SW
H-2A R/B 4.4 22:03:33 14° N 22:03:33 14° N 22:04:16 10° N
Cosmos 2341 Rocket 4.5 22:03:53 56° W 22:03:55 56° W 22:10:02 10° N
ATLAS 2AS CENTAUR R/B 4.0 22:55:54 10° NNW 23:00:36 39° NNW 23:00:36 39° NNW
